Tracking 19794 objects as of 21-Jul-2019
HD Live streaming from Space Station
objects crossing your sky now

COSMOS 1136

Track COSMOS 1136 now!
10-day predictions
COSMOS 1136 is classified as:


NORAD ID: 11544
Int'l Code: 1979-084G
Perigee: 1,479.5 km
Apogee: 1,503.4 km
Inclination: 74.0 °
Period: 115.6 minutes
Semi major axis: 7862 km
RCS: 0.6827 m2 (medium)
Launch date: September 25, 1979
Source: Commonwealth of Independent States (former USSR) (CIS)
Launch site: PLESETSK MISSILE AND SPACE COMPLEX (PKMTR)
aabbcc
Your satellite tracking list
Your tracking list is empty




NASA's NSSDC Master Catalog

Two Line Element Set (TLE):
1 11544U 79084G   19202.52840344 -.00000009  00000-0  44173-4 0  9990
2 11544  74.0227 248.1048 0015213 155.7484 357.5844 12.45269490810335
Source of the keplerian elements: AFSPC